User: anonymous   Login
Location: Unspecified
(0.0000°N, 0.0000°E)
Time: 21:23:27
(UTC+00:00)
Language:

TBA - TO BE ASSIGNED - Orbit

View from above orbital plane
View from above orbital plane
View from above satellite
View from above satellite

Ground track
Ground track

The orbit is defined by the following mean orbital elements,

1 68851U          26145.58335647 +.00000000 +00000-0 +26386-3 0 00008
2 68851  97.2851 160.2801 0001025 104.2298 123.7245 15.49159735    07
Epoch (UTC): 25 May 2026 14:00:01
Eccentricity: 0.0001025
inclination: 97.2851°
perigee height: 418 km
apogee height: 420 km
right ascension of ascending node: 160.2801°
argument of perigee: 104.2298°
revolutions per day: 15.49159735
mean anomaly at epoch: 123.7245°

The dashed part of the orbit path shows where the satellite is in the earth's shadow,  

DLR